SAA372 FACT-FAOR

Flight info

Callsign SAA372
Flight time 1h 41m
Altitude 37000
Route TETAN1B TETAN UZ2 NIBEX NIBEX1D
Aircraft A320/M-SDE3FGHIRWY/LB1

Departure

Time 2026-05-06 17:13
Airport Cape Town International Airport (FACT)

Arrival

Time 2026-05-06 18:54
Airport O.R. Tambo International Airport (FAOR)
Time Latitude Longitude Altitude Speed Heading
2026-05-06 16:49 -33.96987 18.59835 159 ft 0 kts 255°
2026-05-06 17:03 -33.96984 18.59849 160 ft 2 kts 255°
2026-05-06 17:03 -33.96980 18.59865 160 ft 1 kts 255°
2026-05-06 17:04 -33.96977 18.59881 160 ft 2 kts 255°
2026-05-06 17:04 -33.96973 18.59898 160 ft 2 kts 258°
2026-05-06 17:04 -33.96975 18.59915 160 ft 2 kts 298°
2026-05-06 17:04 -33.96985 18.59929 159 ft 2 kts 332°
2026-05-06 17:05 -33.96992 18.59932 159 ft 1 kts 349°
2026-05-06 17:05 -33.96996 18.59933 159 ft 0 kts 345°
2026-05-06 17:08 -33.96977 18.59927 160 ft 5 kts 344°
2026-05-06 17:09 -33.96907 18.59904 161 ft 14 kts 345°
2026-05-06 17:09 -33.96814 18.59873 162 ft 13 kts 344°
2026-05-06 17:09 -33.96715 18.59840 160 ft 15 kts 345°
2026-05-06 17:09 -33.96603 18.59806 159 ft 16 kts 348°
2026-05-06 17:10 -33.96486 18.59777 158 ft 17 kts 348°
2026-05-06 17:10 -33.96363 18.59749 156 ft 18 kts 349°
2026-05-06 17:10 -33.96240 18.59731 156 ft 15 kts 13°
2026-05-06 17:10 -33.96165 18.59800 156 ft 12 kts 48°
2026-05-06 17:11 -33.96111 18.59869 156 ft 10 kts 45°
2026-05-06 17:11 -33.96058 18.59930 157 ft 10 kts 42°
2026-05-06 17:11 -33.96027 18.59998 159 ft 8 kts 92°
2026-05-06 17:11 -33.96064 18.60038 159 ft 7 kts 166°
2026-05-06 17:12 -33.96175 18.60072 157 ft 37 kts 165°
2026-05-06 17:12 -33.96603 18.60209 158 ft 90 kts 165°
2026-05-06 17:12 -33.97384 18.60458 158 ft 139 kts 165°
2026-05-06 17:12 -33.98376 18.60771 545 ft 149 kts 165°
2026-05-06 17:13 -33.99384 18.61103 1057 ft 157 kts 166°
2026-05-06 17:13 -34.00395 18.61406 1742 ft 148 kts 166°
2026-05-06 17:13 -34.01406 18.61722 2121 ft 154 kts 167°
2026-05-06 17:13 -34.02486 18.62070 2352 ft 172 kts 167°
2026-05-06 17:14 -34.03711 18.62453 2598 ft 191 kts 167°
2026-05-06 17:14 -34.05095 18.62902 2664 ft 226 kts 166°
2026-05-06 17:14 -34.06715 18.63434 2895 ft 253 kts 166°
2026-05-06 17:14 -34.08396 18.63991 3790 ft 252 kts 166°
2026-05-06 17:15 -34.10025 18.64505 4541 ft 254 kts 169°
2026-05-06 17:15 -34.11742 18.64951 5270 ft 259 kts 170°
2026-05-06 17:15 -34.13491 18.65432 6004 ft 263 kts 169°
2026-05-06 17:15 -34.15248 18.65930 6713 ft 268 kts 170°
2026-05-06 17:16 -34.16980 18.66543 7389 ft 276 kts 157°
2026-05-06 17:16 -34.18449 18.68035 8049 ft 289 kts 125°
2026-05-06 17:16 -34.19064 18.70339 8696 ft 300 kts 91°
2026-05-06 17:16 -34.18649 18.72570 9309 ft 304 kts 60°
2026-05-06 17:17 -34.17211 18.74418 10014 ft 300 kts 25°
2026-05-06 17:17 -34.15266 18.75318 10426 ft 310 kts 12°
2026-05-06 17:17 -34.13213 18.76066 10445 ft 337 kts 14°
2026-05-06 17:17 -34.10905 18.76981 10460 ft 365 kts 15°
2026-05-06 17:18 -34.08455 18.77955 10953 ft 375 kts 15°
2026-05-06 17:18 -34.06082 18.78946 11915 ft 372 kts 20°
2026-05-06 17:18 -34.03974 18.80521 12583 ft 382 kts 40°
2026-05-06 17:18 -34.02303 18.83035 13181 ft 392 kts 54°
2026-05-06 17:19 -34.00827 18.85764 13812 ft 397 kts 53°
2026-05-06 17:19 -33.99299 18.88469 14435 ft 401 kts 51°
2026-05-06 17:19 -33.97727 18.91122 15030 ft 405 kts 51°
2026-05-06 17:19 -33.96182 18.93680 15590 ft 408 kts 48°
2026-05-06 17:20 -33.94300 18.96278 16193 ft 410 kts 42°
2026-05-06 17:20 -33.92375 18.98793 16783 ft 414 kts 44°
2026-05-06 17:20 -33.90469 19.01429 17385 ft 418 kts 44°
2026-05-06 17:20 -33.88563 19.04043 17960 ft 421 kts 43°
2026-05-06 17:21 -33.86622 19.06693 18518 ft 425 kts 43°
2026-05-06 17:21 -33.84674 19.09369 19094 ft 428 kts 43°
2026-05-06 17:21 -33.82697 19.12080 19663 ft 430 kts 42°
2026-05-06 17:21 -33.80709 19.14804 20178 ft 434 kts 42°
2026-05-06 17:22 -33.78730 19.17514 20687 ft 437 kts 42°
2026-05-06 17:22 -33.76729 19.20253 21225 ft 439 kts 41°
2026-05-06 17:22 -33.74686 19.23046 21670 ft 444 kts 41°
2026-05-06 17:22 -33.72661 19.25814 22150 ft 446 kts 41°
2026-05-06 17:23 -33.70594 19.28635 22580 ft 450 kts 41°
2026-05-06 17:23 -33.68541 19.31437 23008 ft 454 kts 41°
2026-05-06 17:23 -33.66439 19.34304 23464 ft 456 kts 41°
2026-05-06 17:23 -33.64333 19.37172 23863 ft 460 kts 41°
2026-05-06 17:24 -33.62212 19.40059 24265 ft 463 kts 41°
2026-05-06 17:24 -33.60082 19.42956 24650 ft 466 kts 41°
2026-05-06 17:24 -33.57946 19.45859 25050 ft 469 kts 41°
2026-05-06 17:24 -33.55777 19.48803 25380 ft 473 kts 41°
2026-05-06 17:25 -33.53578 19.51787 25762 ft 475 kts 41°
2026-05-06 17:25 -33.51392 19.54750 26095 ft 478 kts 40°
2026-05-06 17:25 -33.49183 19.57743 26437 ft 481 kts 40°
2026-05-06 17:25 -33.46943 19.60775 26767 ft 484 kts 40°
2026-05-06 17:26 -33.44718 19.63786 27203 ft 484 kts 40°
2026-05-06 17:26 -33.42494 19.66793 27652 ft 483 kts 39°
2026-05-06 17:26 -33.40287 19.69780 27992 ft 484 kts 39°
2026-05-06 17:26 -33.38061 19.72785 28411 ft 483 kts 39°
2026-05-06 17:27 -33.35818 19.75807 28772 ft 483 kts 39°
2026-05-06 17:27 -33.33590 19.78806 29113 ft 483 kts 39°
2026-05-06 17:27 -33.31370 19.81794 29491 ft 482 kts 39°
2026-05-06 17:27 -33.29142 19.84790 29823 ft 482 kts 39°
2026-05-06 17:28 -33.26926 19.87768 30242 ft 480 kts 39°
2026-05-06 17:28 -33.24693 19.90760 30452 ft 483 kts 39°
2026-05-06 17:28 -33.22464 19.93751 30737 ft 483 kts 39°
2026-05-06 17:28 -33.20232 19.96743 31135 ft 480 kts 38°
2026-05-06 17:29 -33.18023 19.99698 31405 ft 481 kts 38°
2026-05-06 17:29 -33.15800 20.02672 31688 ft 481 kts 38°
2026-05-06 17:29 -33.13544 20.05685 31883 ft 483 kts 38°
2026-05-06 17:29 -33.11312 20.08669 32219 ft 481 kts 38°
2026-05-06 17:30 -33.09125 20.11586 32521 ft 479 kts 38°
2026-05-06 17:30 -33.06872 20.14585 32727 ft 481 kts 39°
2026-05-06 17:30 -33.04642 20.17555 32898 ft 482 kts 39°
2026-05-06 17:30 -33.02400 20.20544 33203 ft 480 kts 39°
2026-05-06 17:31 -33.00282 20.23361 33551 ft 477 kts 39°
2026-05-06 17:31 -32.98070 20.26296 33712 ft 478 kts 40°
2026-05-06 17:31 -32.95840 20.29259 33950 ft 477 kts 40°
2026-05-06 17:31 -32.93616 20.32211 34198 ft 476 kts 40°
2026-05-06 17:32 -32.91435 20.35103 34406 ft 476 kts 40°
2026-05-06 17:32 -32.89223 20.38031 34585 ft 476 kts 40°
2026-05-06 17:32 -32.87005 20.40958 34795 ft 475 kts 40°
2026-05-06 17:32 -32.84782 20.43895 35017 ft 474 kts 40°
2026-05-06 17:33 -32.82599 20.46780 35221 ft 474 kts 40°
2026-05-06 17:33 -32.80368 20.49723 35343 ft 475 kts 40°
2026-05-06 17:33 -32.78182 20.52607 35522 ft 475 kts 40°
2026-05-06 17:33 -32.75976 20.55516 35715 ft 474 kts 40°
2026-05-06 17:34 -32.73788 20.58397 35885 ft 473 kts 40°
2026-05-06 17:34 -32.71591 20.61289 36065 ft 472 kts 40°
2026-05-06 17:34 -32.69848 20.63582 36154 ft 473 kts 40°
2026-05-06 17:34 -32.67685 20.66425 36287 ft 472 kts 39°
2026-05-06 17:35 -32.65490 20.69330 36453 ft 472 kts 40°
2026-05-06 17:35 -32.61198 20.75237 36665 ft 472 kts 41°
2026-05-06 17:36 -32.56919 20.81141 36821 ft 473 kts 41°
2026-05-06 17:36 -32.54778 20.84097 36924 ft 473 kts 41°
2026-05-06 17:36 -32.50550 20.89928 37015 ft 463 kts 41°
2026-05-06 17:37 -32.46350 20.95700 37025 ft 467 kts 41°
2026-05-06 17:37 -32.42093 21.01548 37021 ft 471 kts 41°
2026-05-06 17:38 -32.37817 21.07416 37025 ft 474 kts 41°
2026-05-06 17:38 -32.33556 21.13254 37019 ft 472 kts 41°
2026-05-06 17:39 -32.29265 21.19121 37023 ft 472 kts 42°
2026-05-06 17:39 -32.24985 21.24964 37023 ft 473 kts 42°
2026-05-06 17:40 -32.20672 21.30844 37020 ft 473 kts 41°
2026-05-06 17:40 -32.16363 21.36708 37023 ft 473 kts 41°
2026-05-06 17:41 -32.12068 21.42546 37023 ft 473 kts 41°
2026-05-06 17:41 -32.07772 21.48373 37020 ft 473 kts 42°
2026-05-06 17:42 -32.03465 21.54210 37026 ft 471 kts 41°
2026-05-06 17:42 -31.99196 21.59981 37022 ft 473 kts 42°
2026-05-06 17:43 -31.94873 21.65822 37022 ft 472 kts 41°
2026-05-06 17:43 -31.90564 21.71643 37017 ft 472 kts 41°
2026-05-06 17:44 -31.86264 21.77420 37025 ft 472 kts 41°
2026-05-06 17:44 -31.81977 21.83182 37017 ft 471 kts 41°
2026-05-06 17:45 -31.77640 21.89001 37023 ft 472 kts 41°
2026-05-06 17:45 -31.73324 21.94785 37021 ft 473 kts 41°
2026-05-06 17:46 -31.69011 22.00557 37023 ft 472 kts 41°
2026-05-06 17:46 -31.64712 22.06300 37021 ft 471 kts 41°
2026-05-06 17:47 -31.60380 22.12077 37021 ft 473 kts 41°
2026-05-06 17:47 -31.56056 22.17839 37021 ft 471 kts 41°
2026-05-06 17:48 -31.51722 22.23601 37019 ft 472 kts 41°
2026-05-06 17:48 -31.47386 22.29359 37022 ft 472 kts 41°
2026-05-06 17:49 -31.43032 22.35131 37023 ft 472 kts 41°
2026-05-06 17:49 -31.38703 22.40862 37023 ft 473 kts 41°
2026-05-06 17:50 -31.34337 22.46633 37024 ft 474 kts 41°
2026-05-06 17:50 -31.29997 22.52361 37022 ft 472 kts 41°
2026-05-06 17:51 -31.25641 22.58101 37024 ft 473 kts 41°
2026-05-06 17:51 -31.21266 22.63858 37023 ft 473 kts 41°
2026-05-06 17:52 -31.16923 22.69576 37027 ft 472 kts 41°
2026-05-06 17:52 -31.12545 22.75320 37015 ft 474 kts 41°
2026-05-06 17:53 -31.08161 22.81064 37001 ft 472 kts 41°
2026-05-06 17:53 -31.03799 22.86743 36993 ft 470 kts 40°
2026-05-06 17:54 -30.99286 22.92283 36994 ft 472 kts 40°
2026-05-06 17:54 -30.94801 22.97786 36996 ft 469 kts 40°
2026-05-06 17:55 -30.90381 23.03194 36993 ft 470 kts 41°
2026-05-06 17:55 -30.85837 23.08736 36993 ft 472 kts 41°
2026-05-06 17:56 -30.81322 23.14245 36992 ft 470 kts 41°
2026-05-06 17:56 -30.76803 23.19750 36994 ft 472 kts 41°
2026-05-06 17:57 -30.72282 23.25250 36994 ft 472 kts 41°
2026-05-06 17:57 -30.67757 23.30749 36997 ft 470 kts 41°
2026-05-06 17:58 -30.63211 23.36260 36992 ft 473 kts 41°
2026-05-06 17:58 -30.58667 23.41768 36994 ft 470 kts 41°
2026-05-06 17:59 -30.54152 23.47226 37002 ft 471 kts 41°
2026-05-06 17:59 -30.49622 23.52698 36994 ft 471 kts 41°
2026-05-06 18:00 -30.45099 23.58153 37000 ft 469 kts 41°
2026-05-06 18:00 -30.40587 23.63584 36990 ft 473 kts 41°
2026-05-06 18:01 -30.36030 23.69080 36995 ft 470 kts 41°
2026-05-06 18:01 -30.31484 23.74537 36996 ft 471 kts 41°
2026-05-06 18:02 -30.26944 23.79984 36992 ft 471 kts 41°
2026-05-06 18:02 -30.22393 23.85435 36994 ft 468 kts 40°
2026-05-06 18:03 -30.17881 23.90828 36995 ft 471 kts 40°
2026-05-06 18:03 -30.13344 23.96246 36996 ft 471 kts 40°
2026-05-06 18:04 -30.08764 24.01708 36998 ft 469 kts 40°
2026-05-06 18:04 -30.04236 24.07099 36994 ft 470 kts 40°
2026-05-06 18:05 -29.99696 24.12497 36995 ft 470 kts 40°
2026-05-06 18:05 -29.95114 24.17937 36994 ft 471 kts 40°
2026-05-06 18:06 -29.90563 24.23336 36997 ft 469 kts 40°
2026-05-06 18:06 -29.86027 24.28693 36993 ft 470 kts 40°
2026-05-06 18:07 -29.81469 24.34083 36995 ft 471 kts 41°
2026-05-06 18:07 -29.76885 24.39494 36997 ft 471 kts 41°
2026-05-06 18:08 -29.72307 24.44893 36995 ft 471 kts 40°
2026-05-06 18:08 -29.67730 24.50282 36994 ft 470 kts 40°
2026-05-06 18:09 -29.63165 24.55651 36998 ft 470 kts 40°
2026-05-06 18:09 -29.58588 24.61024 36994 ft 470 kts 40°
2026-05-06 18:10 -29.54036 24.66365 36995 ft 469 kts 40°
2026-05-06 18:10 -29.49473 24.71719 36991 ft 469 kts 40°
2026-05-06 18:11 -29.44885 24.77083 36995 ft 471 kts 40°
2026-05-06 18:11 -29.40298 24.82441 36993 ft 469 kts 40°
2026-05-06 18:12 -29.35733 24.87763 36994 ft 469 kts 40°
2026-05-06 18:12 -29.31167 24.93085 36994 ft 469 kts 40°
2026-05-06 18:13 -29.26578 24.98417 36991 ft 471 kts 40°
2026-05-06 18:13 -29.22013 25.03721 36999 ft 471 kts 41°
2026-05-06 18:14 -29.17376 25.09099 36993 ft 472 kts 41°
2026-05-06 18:14 -29.12788 25.14414 36992 ft 473 kts 41°
2026-05-06 18:15 -29.08169 25.19758 36994 ft 471 kts 42°
2026-05-06 18:15 -29.03595 25.25043 36996 ft 467 kts 41°
2026-05-06 18:16 -28.99025 25.30315 36994 ft 464 kts 41°
2026-05-06 18:16 -28.94505 25.35523 36995 ft 464 kts 41°
2026-05-06 18:17 -28.90030 25.40671 36995 ft 463 kts 41°
2026-05-06 18:17 -28.85499 25.45864 36995 ft 463 kts 41°
2026-05-06 18:18 -28.80937 25.51100 36990 ft 464 kts 41°
2026-05-06 18:18 -28.76406 25.56293 36980 ft 463 kts 41°
2026-05-06 18:19 -28.71854 25.61503 36976 ft 463 kts 41°
2026-05-06 18:19 -28.67310 25.66700 36967 ft 463 kts 41°
2026-05-06 18:20 -28.62781 25.71880 36967 ft 463 kts 41°
2026-05-06 18:20 -28.58275 25.77018 36966 ft 463 kts 41°
2026-05-06 18:21 -28.53717 25.82208 36968 ft 463 kts 41°
2026-05-06 18:21 -28.49167 25.87382 36965 ft 463 kts 41°
2026-05-06 18:22 -28.44605 25.92564 36969 ft 462 kts 41°
2026-05-06 18:22 -28.40076 25.97701 36965 ft 462 kts 41°
2026-05-06 18:23 -28.35787 26.02558 36968 ft 463 kts 41°
2026-05-06 18:23 -28.31499 26.07410 36968 ft 463 kts 41°
2026-05-06 18:24 -28.27322 26.12093 36966 ft 461 kts 40°
2026-05-06 18:24 -28.22784 26.17177 36968 ft 463 kts 41°
2026-05-06 18:25 -28.18229 26.22322 36967 ft 462 kts 41°
2026-05-06 18:25 -28.13682 26.27456 36969 ft 462 kts 41°
2026-05-06 18:26 -28.09130 26.32589 36967 ft 463 kts 41°
2026-05-06 18:26 -28.04558 26.37738 36969 ft 463 kts 41°
2026-05-06 18:27 -28.00004 26.42854 36968 ft 462 kts 41°
2026-05-06 18:27 -27.95411 26.47975 36969 ft 462 kts 41°
2026-05-06 18:28 -27.90848 26.53056 36968 ft 462 kts 41°
2026-05-06 18:28 -27.86256 26.58152 36966 ft 462 kts 41°
2026-05-06 18:29 -27.81657 26.63260 36970 ft 462 kts 41°
2026-05-06 18:29 -27.77088 26.68337 36965 ft 462 kts 40°
2026-05-06 18:30 -27.72464 26.73464 36966 ft 462 kts 40°
2026-05-06 18:30 -27.67879 26.78538 36969 ft 462 kts 40°
2026-05-06 18:31 -27.63287 26.83613 36999 ft 461 kts 40°
2026-05-06 18:31 -27.58704 26.88673 37060 ft 461 kts 40°
2026-05-06 18:32 -27.54151 26.93697 36600 ft 457 kts 40°
2026-05-06 18:32 -27.51893 26.96202 35786 ft 463 kts 40°
2026-05-06 18:32 -27.49582 26.98768 35078 ft 466 kts 40°
2026-05-06 18:33 -27.47290 27.01310 34488 ft 466 kts 40°
2026-05-06 18:33 -27.44983 27.03868 34065 ft 461 kts 40°
2026-05-06 18:33 -27.42707 27.06390 33621 ft 457 kts 40°
2026-05-06 18:33 -27.40715 27.08596 33199 ft 455 kts 40°
2026-05-06 18:34 -27.38462 27.11098 32751 ft 451 kts 41°
2026-05-06 18:34 -27.36249 27.13558 32303 ft 448 kts 41°
2026-05-06 18:34 -27.34059 27.15989 31888 ft 444 kts 41°
2026-05-06 18:34 -27.31862 27.18427 31442 ft 441 kts 41°
2026-05-06 18:35 -27.29700 27.20824 31034 ft 436 kts 40°
2026-05-06 18:35 -27.27526 27.23234 30580 ft 433 kts 41°
2026-05-06 18:35 -27.25398 27.25590 30178 ft 429 kts 41°
2026-05-06 18:35 -27.23299 27.27914 29748 ft 426 kts 41°
2026-05-06 18:36 -27.21201 27.30232 29337 ft 422 kts 40°
2026-05-06 18:36 -27.19066 27.32442 28888 ft 417 kts 36°
2026-05-06 18:36 -27.16822 27.34491 28459 ft 413 kts 35°
2026-05-06 18:36 -27.14616 27.36573 28044 ft 410 kts 37°
2026-05-06 18:37 -27.12455 27.38631 27630 ft 407 kts 36°
2026-05-06 18:37 -27.10298 27.40668 27211 ft 403 kts 36°
2026-05-06 18:37 -27.08222 27.42634 26777 ft 401 kts 36°
2026-05-06 18:37 -27.06094 27.44649 26363 ft 398 kts 36°
2026-05-06 18:38 -27.03992 27.46637 25962 ft 394 kts 37°
2026-05-06 18:38 -27.01918 27.48598 25590 ft 390 kts 36°
2026-05-06 18:38 -26.99977 27.50433 25277 ft 385 kts 36°
2026-05-06 18:38 -26.98076 27.52227 24954 ft 380 kts 36°
2026-05-06 18:39 -26.96402 27.53788 24667 ft 375 kts 36°
2026-05-06 18:39 -26.94426 27.55611 24323 ft 371 kts 36°
2026-05-06 18:39 -26.92461 27.57466 23976 ft 366 kts 37°
2026-05-06 18:40 -26.88603 27.61117 23285 ft 356 kts 37°
2026-05-06 18:40 -26.87049 27.62590 22980 ft 353 kts 39°
2026-05-06 18:40 -26.85400 27.64348 22582 ft 352 kts 41°
2026-05-06 18:40 -26.84249 27.65600 22302 ft 350 kts 41°
2026-05-06 18:41 -26.82539 27.67451 21915 ft 347 kts 41°
2026-05-06 18:41 -26.81352 27.68756 21634 ft 346 kts 41°
2026-05-06 18:41 -26.79833 27.70429 21257 ft 344 kts 42°
2026-05-06 18:41 -26.78130 27.72303 20847 ft 341 kts 42°
2026-05-06 18:42 -26.76425 27.74181 20427 ft 339 kts 42°
2026-05-06 18:42 -26.74748 27.76027 20011 ft 337 kts 42°
2026-05-06 18:42 -26.73095 27.77847 19605 ft 335 kts 43°
2026-05-06 18:42 -26.71387 27.79724 19067 ft 355 kts 43°
2026-05-06 18:43 -26.69660 27.81624 18440 ft 348 kts 43°
2026-05-06 18:43 -26.67962 27.83493 17812 ft 340 kts 43°
2026-05-06 18:43 -26.66296 27.85323 17185 ft 332 kts 43°
2026-05-06 18:43 -26.64666 27.87098 16562 ft 326 kts 43°
2026-05-06 18:44 -26.63048 27.88847 15903 ft 321 kts 43°
2026-05-06 18:44 -26.61450 27.90563 15205 ft 319 kts 43°
2026-05-06 18:44 -26.59868 27.92253 14511 ft 316 kts 43°
2026-05-06 18:44 -26.58273 27.93950 13806 ft 314 kts 43°
2026-05-06 18:45 -26.56721 27.95594 13116 ft 312 kts 43°
2026-05-06 18:45 -26.55138 27.97268 12411 ft 310 kts 43°
2026-05-06 18:45 -26.53615 27.98876 11974 ft 299 kts 43°
2026-05-06 18:45 -26.52142 28.00430 11684 ft 285 kts 43°
2026-05-06 18:46 -26.50694 28.01951 11079 ft 284 kts 43°
2026-05-06 18:46 -26.49259 28.03449 10458 ft 284 kts 43°
2026-05-06 18:46 -26.47847 28.04918 10100 ft 274 kts 43°
2026-05-06 18:46 -26.46483 28.06331 9913 ft 263 kts 43°
2026-05-06 18:47 -26.45151 28.07711 9788 ft 262 kts 43°
2026-05-06 18:47 -26.43796 28.09113 9631 ft 263 kts 43°
2026-05-06 18:47 -26.42473 28.10482 9424 ft 258 kts 44°
2026-05-06 18:47 -26.41191 28.11837 9221 ft 254 kts 44°
2026-05-06 18:48 -26.40065 28.13070 9035 ft 249 kts 42°
2026-05-06 18:48 -26.38687 28.14216 8818 ft 245 kts 29°
2026-05-06 18:48 -26.37191 28.15084 8572 ft 242 kts 25°
2026-05-06 18:48 -26.35693 28.15905 8366 ft 238 kts 25°
2026-05-06 18:49 -26.34538 28.16564 8258 ft 232 kts 27°
2026-05-06 18:49 -26.33093 28.17392 8110 ft 225 kts 23°
2026-05-06 18:49 -26.31656 28.18024 7979 ft 221 kts 17°
2026-05-06 18:49 -26.30230 28.18533 8044 ft 205 kts 16°
2026-05-06 18:50 -26.28883 28.18984 7963 ft 200 kts 15°
2026-05-06 18:50 -26.27563 28.19408 7955 ft 198 kts 14°
2026-05-06 18:50 -26.26241 28.19824 7927 ft 195 kts 14°
2026-05-06 18:50 -26.24981 28.20219 7707 ft 189 kts 14°
2026-05-06 18:51 -26.23737 28.20607 7460 ft 185 kts 14°
2026-05-06 18:51 -26.22507 28.20989 7210 ft 179 kts 14°
2026-05-06 18:51 -26.21350 28.21349 6980 ft 167 kts 14°
2026-05-06 18:51 -26.20267 28.21683 6750 ft 156 kts 13°
2026-05-06 18:52 -26.19232 28.22003 6551 ft 151 kts 13°
2026-05-06 18:52 -26.18267 28.22302 6359 ft 143 kts 13°
2026-05-06 18:52 -26.17305 28.22600 6160 ft 143 kts 13°
2026-05-06 18:52 -26.16351 28.22897 5952 ft 140 kts 13°
2026-05-06 18:53 -26.15427 28.23193 5746 ft 136 kts 13°
2026-05-06 18:53 -26.14516 28.23475 5599 ft 133 kts 12°
2026-05-06 18:53 -26.13684 28.23726 5553 ft 111 kts 14°
2026-05-06 18:53 -26.13085 28.23918 5533 ft 72 kts 16°
2026-05-06 18:54 -26.12747 28.23992 5527 ft 28 kts 355°
2026-05-06 18:54 -26.12607 28.23962 5528 ft 9 kts 346°
2026-05-06 18:54 -26.12563 28.23948 5529 ft 4 kts 327°
2026-05-06 18:54 -26.12552 28.23936 5529 ft 1 kts 306°
2026-05-06 18:55 -26.12546 28.23915 5530 ft 4 kts 274°
2026-05-06 18:55 -26.12574 28.23874 5532 ft 9 kts 205°
2026-05-06 18:55 -26.12651 28.23850 5533 ft 13 kts 194°
2026-05-06 18:55 -26.12749 28.23818 5534 ft 15 kts 197°
2026-05-06 18:56 -26.12859 28.23783 5536 ft 16 kts 197°
2026-05-06 18:56 -26.12957 28.23752 5540 ft 12 kts 196°
2026-05-06 18:56 -26.13033 28.23728 5543 ft 12 kts 196°
2026-05-06 18:56 -26.13135 28.23696 5547 ft 18 kts 195°
2026-05-06 18:57 -26.13259 28.23659 5552 ft 19 kts 196°
2026-05-06 18:57 -26.13384 28.23620 5557 ft 18 kts 197°
2026-05-06 18:57 -26.13505 28.23583 5561 ft 17 kts 194°
2026-05-06 18:57 -26.13623 28.23547 5563 ft 16 kts 196°
2026-05-06 18:58 -26.13722 28.23517 5565 ft 12 kts 195°
2026-05-06 18:58 -26.13783 28.23478 5567 ft 8 kts 245°
2026-05-06 18:58 -26.13782 28.23421 5571 ft 7 kts 285°
2026-05-06 18:58 -26.13750 28.23356 5574 ft 10 kts 327°
2026-05-06 18:59 -26.13684 28.23340 5575 ft 8 kts 349°
2026-05-06 18:59 -26.13663 28.23311 5577 ft 2 kts 278°
2026-05-06 18:59 -26.13659 28.23274 5578 ft 6 kts 274°
2026-05-06 18:59 -26.13659 28.23260 5579 ft 0 kts 275°